Weather History for Lydd, United Kingdom

Change the Weather History Date:

Wednesday, October 16, 2013

  Actual Average (EGMC) Record (EGMC)
Temperature  
Mean Temperature 54 °F -  
Max Temperature 62 °F 57 °F 62 °F (2001)
Min Temperature 46 °F 46 °F 33 °F (2011)
Degree Days  
Heating Degree Days 11    
Growing Degree Days 4 (Base 50)    
Moisture  
Dew Point 54 °F    
Average Humidity 91    
Maximum Humidity 100    
Minimum Humidity 77    
Precipitation  
Precipitation 0.00 in - - ()
Sea Level Pressure  
Sea Level Pressure 29.81 in    
Wind  
Wind Speed 13 mph ()    
Max Wind Speed 21 mph    
Max Gust Speed -    
Visibility 5.2 miles    
Events Rain    
Averages and records for this station are not official NWS values.
T = Trace of Precipitation, MM = Missing Value Source: Averaged Metar Reports

Daily Weather History Graph

Daily Weather History Graph

Search for Another Location

Airport:

Trip Planner

Search our weather history database for the weather conditions in past years. The results will help you decide how hot, cold, wet, or windy it might be!

Date:

Astronomy

Oct. 16, 2013 Rise Set
Actual Time 7:21 AM BST 6:01 PM BST
Civil Twilight 6:47 AM BST 6:34 PM BST
Nautical Twilight 6:09 AM BST 7:12 PM BST
Astronomical Twilight 5:31 AM BST 7:51 PM BST
Moon 4:44 PM BST (10/16) 4:17 AM BST (10/16)
Length of Visible Light 11h 46m
Length of Day
10h 40m
Waxing Gibbous, 93% of the Moon is Illuminated
Oct 16
Waxing Gibbous
Oct 19
Full
Oct 27
Last Quarter
Nov 3
New
Nov 10
First Quarter

Hourly Weather History & Observations

Time (BST) Temp. Windchill Dew Point Humidity Pressure Visibility Wind Dir Wind Speed Gust Speed Precip Events Conditions
8:20 AM 46.4 °F 42.4 °F 46.4 °F 100% 29.92 in 6.2 mi SSE 8.1 mph - N/A   Scattered Clouds
8:50 AM 51.8 °F - 51.8 °F 100% 29.92 in 6.2 mi SSE 10.4 mph - N/A   Scattered Clouds
9:20 AM 53.6 °F - 53.6 °F 100% 29.92 in 6.2 mi SSE 12.7 mph - N/A   Scattered Clouds
9:50 AM 55.4 °F - 53.6 °F 94% 29.89 in 6.2 mi SE 13.8 mph - N/A   Scattered Clouds
10:20 AM 57.2 °F - 53.6 °F 88% 29.89 in 6.2 mi SSE 15.0 mph - N/A Rain Light Rain
10:50 AM 57.2 °F - 51.8 °F 82% 29.89 in 6.2 mi SSE 15.0 mph - N/A Rain Light Rain
11:20 AM 57.2 °F - 50.0 °F 77% 29.86 in 6.2 mi SSE 16.1 mph - N/A Rain Light Rain
11:50 AM 57.2 °F - 51.8 °F 82% 29.83 in 6.2 mi SSE 17.3 mph - N/A   Scattered Clouds
12:20 PM 57.2 °F - 51.8 °F 82% 29.83 in 6.2 mi SSE 20.7 mph - N/A   Scattered Clouds
12:50 PM 55.4 °F - 51.8 °F 88% 29.80 in 4.3 mi SSE 17.3 mph - N/A Rain Rain
1:20 PM 55.4 °F - 51.8 °F 88% 29.80 in 5.0 mi SSE 19.6 mph - N/A Rain Rain
1:50 PM 55.4 °F - 51.8 °F 88% 29.77 in 3.7 mi SSE 16.1 mph - N/A Rain Rain
2:20 PM 53.6 °F - 53.6 °F 100% 29.77 in 2.5 mi SSE 19.6 mph - N/A Rain Rain
2:50 PM 55.4 °F - 53.6 °F 94% 29.77 in 1.2 mi SSE 17.3 mph - N/A Rain Light Rain
3:20 PM 57.2 °F - 55.4 °F 94% 29.74 in 1.6 mi SSE 17.3 mph - N/A Rain Light Rain
3:50 PM 57.2 °F - 57.2 °F 100% 29.74 in 5.6 mi South 18.4 mph - N/A   Mostly Cloudy
4:20 PM 60.8 °F - 59.0 °F 94% 29.74 in 5.6 mi SW 17.3 mph - N/A   Scattered Clouds
4:50 PM 62.6 °F - 59.0 °F 88% 29.74 in 5.6 mi SW 16.1 mph - N/A   Scattered Clouds
5:20 PM 60.8 °F - 59.0 °F 94% 29.74 in 5.6 mi WSW 16.1 mph - N/A   Scattered Clouds
5:50 PM 60.8 °F - 57.2 °F 88% 29.74 in 5.6 mi WSW 16.1 mph - N/A   Scattered Clouds
6:20 PM 59.0 °F - 57.2 °F 94% 29.77 in 5.6 mi WSW 13.8 mph - N/A   Partly Cloudy
6:50 PM 59.0 °F - 55.4 °F 88% 29.77 in 5.6 mi WSW 15.0 mph - N/A   Partly Cloudy